Regional Weather Roundup
Issued by NWS

Home | Current Version | Previous Version | Graphics & Text | Print | Product List | Glossary Off
Versions: 1 2 3 4 5 6 7 8 9 10 11 12 13 14 15 16 17 18 19 20 21 22 23 24 25 26 27 28 29 30 31 32 33 34 35 36 37 38 39 40 41 42 43 44 45 46 47 48 49 50

000
ASUS43 KTOP 251359
RWRKS

WEATHER ROUNDUP FOR KANSAS
NATIONAL WEATHER SERVICE GOODLAND KS
900 AM CDT WED MAY 25 2016

NOTE:  "FAIR" INDICATES FEW OR NO CLOUDS BELOW 12,000 FEET WITH NO
SIGNIFICANT WEATHER AND/OR OBSTRUCTIONS TO VISIBILITY.

KSZ001>006-013>018-027>032-041>047-251500-
NORTHWEST KANSAS

CITY           SKY/WX    TMP DP  RH WIND       PRES   REMARKS
GOODLAND       CLOUDY    59  55  87 E15       29.92R
HILL CITY      CLOUDY    62  56  80 NE13      29.89R
RUSSELL        CLOUDY    64  61  90 E8        29.84F
$$

KSZ061>065-074>080-084>089-251500-
SOUTHWEST KANSAS

CITY           SKY/WX    TMP DP  RH WIND       PRES   REMARKS
DODGE CITY     SUNNY     68  61  78 SW10      29.83R
ELKHART          N/A     67  35  30 W10         N/A
GARDEN CITY    FOG       58  57  97 NW14      29.86R VSB 1/2
GREAT BEND     CLOUDY    66  57  72 S15       29.83R
LIBERAL        SUNNY     66  48  52 NW12      29.88R
$$

KSZ066>073-081>083-090>101-251500-
SOUTHEAST KANSAS

CITY           SKY/WX    TMP DP  RH WIND       PRES   REMARKS
CHANUTE        CLOUDY    68  60  75 S20G28    29.87R
COFFEYVILLE    CLOUDY    65  62  90 S16G23    29.92R
HUTCHINSON     CLOUDY    68  65  90 SE13      29.85R
MEDICINE LODGE   N/A     72  68  87 S10       29.82R
NEWTON         CLOUDY    66  61  82 S15       29.88R
PARSONS        CLOUDY    66  62  87 SE8       29.90R
WICHITA INTL   PTSUNNY   70  65  84 S20G25    29.84S
WICHITA JABRA  CLOUDY    68  64  87 S17       29.84R
WINFIELD       PTSUNNY   70  65  84 SE20G31   29.88S
$$

KSZ007>012-019>026-033>040-048>060-102>105-251500-
NORTHEAST KANSAS

CITY           SKY/WX    TMP DP  RH WIND       PRES   REMARKS
CONCORDIA      CLOUDY    62  58  86 NE10      29.87F
EMPORIA        CLOUDY    69  62  78 S15G22    29.85R
LAWRENCE       CLOUDY    69  60  73 NW10      29.88R
MANHATTAN      SUNNY     69  61  75 E7        29.84F
OLATHE IND     CLOUDY    70  58  65 SW5       29.87R
OLATHE EXE     CLOUDY    68  57  68 SW5       29.87R
SALINA         MOSUNNY   73  64  73 S9        29.86R
TOPEKA BILLARD PTSUNNY   69  60  73 N8        29.89R
TOPEKA FORBES  CLOUDY    71  60  68 N9        29.89R
$$



USA.gov is the U.S. government's official web portal to all federal, state and local government web resources and services.